Medford, OR

11:26 AM PDT on June 25, 2017 (GMT -0700)
Rogue Valley International-Medford

Weather History for KMFR - February, 2014

Change the Weather History Date:

Monday, February 3, 2014

  Actual Average Record
Temperature  
Mean Temperature 40 °F 42 °F  
Max Temperature 47 °F 52 °F 65 °F (2005)
Min Temperature 32 °F 34 °F 9 °F (1950)
Degree Days  
Heating Degree Days 25 22  
Month to date heating degree days 73 68  
Since 1 July heating degree days 2926 2600  
Cooling Degree Days 0 0  
Month to date cooling degree days 0 0  
Year to date cooling degree days 0 0  
Moisture  
Dew Point 27 °F    
Average Humidity 60    
Maximum Humidity 82    
Minimum Humidity 38    
Precipitation  
Precipitation T in 0.08 in 1.00 in (1951)
Month to date precipitation T 0.21  
Year to date precipitation 0.78 2.64  
Snow  
Snow 0.00 in 0.10 in - ()
Month to date snowfall 0.0 0.1  
Since 1 July snowfall 3.4 3.1  
Snow Depth 0.00 in    
Sea Level Pressure  
Sea Level Pressure 30.07 in    
Wind  
Wind Speed 2 mph (WNW)    
Max Wind Speed 9 mph    
Max Gust Speed 12 mph    
Visibility 10 miles    
Events Rain    
T = Trace of Precipitation, MM = Missing Value Source: NWS Daily Summary

Daily Weather History Graph

Daily Weather History Graph

Search for Another Location

Airport or City:

Trip Planner

Search our weather history database for the weather conditions in past years. The results will help you decide how hot, cold, wet, or windy it might be!

Date:

Astronomy

Feb. 03, 2014 Rise Set
Actual Time 7:22 AM PST 5:28 PM PST
Civil Twilight 6:53 AM PST 5:58 PM PST
Nautical Twilight 6:19 AM PST 6:31 PM PST
Astronomical Twilight 5:46 AM PST 7:04 PM PST
Moon 9:22 AM PST (2/3) 10:31 PM PST (2/3)
Length of Visible Light 11h 04m
Length of Day
10h 05m
Waxing Crescent, 20% of the Moon is Illuminated
Feb 3
Waxing Crescent
Feb 6
First Quarter
Feb 14
Full
Feb 22
Last Quarter
Mar 1
New

Hourly Weather History & Observations

Time (PST) Temp. Windchill Dew Point Humidity Pressure Visibility Wind Dir Wind Speed Gust Speed Precip Events Conditions
12:53 AM 35.1 °F 31.0 °F 28.0 °F 76% 29.98 in 10.0 mi NE 4.6 mph - N/A   Overcast
1:53 AM 39.0 °F - 28.9 °F 67% 29.98 in 10.0 mi Calm Calm - N/A   Overcast
2:53 AM 39.0 °F - 30.9 °F 73% 30.00 in 10.0 mi Calm Calm - 0.00 in Rain Light Rain
3:53 AM 39.9 °F 37.8 °F 33.1 °F 77% 30.00 in 10.0 mi WSW 3.5 mph - 0.00 in   Overcast
4:53 AM 39.9 °F 36.7 °F 30.9 °F 70% 30.02 in 10.0 mi WNW 4.6 mph - N/A   Overcast
5:53 AM 37.0 °F - 30.0 °F 76% 30.04 in 10.0 mi Calm Calm - N/A   Clear
6:53 AM 36.0 °F 31.1 °F 30.0 °F 79% 30.06 in 10.0 mi West 5.8 mph - N/A   Mostly Cloudy
7:53 AM 35.1 °F - 28.9 °F 78% 30.09 in 10.0 mi Calm Calm - N/A   Mostly Cloudy
8:53 AM 37.0 °F - 28.9 °F 73% 30.11 in 10.0 mi Calm Calm - N/A   Mostly Cloudy
9:53 AM 41.0 °F - 28.9 °F 62% 30.13 in 10.0 mi Calm Calm - N/A   Scattered Clouds
10:53 AM 43.0 °F 40.3 °F 27.0 °F 53% 30.12 in 10.0 mi SSW 4.6 mph - N/A   Mostly Cloudy
11:53 AM 44.1 °F 40.8 °F 25.0 °F 47% 30.12 in 10.0 mi WNW 5.8 mph - N/A   Overcast
12:53 PM 44.1 °F 40.8 °F 26.1 °F 49% 30.10 in 10.0 mi NNW 5.8 mph - N/A   Overcast
1:53 PM 45.0 °F - 24.1 °F 44% 30.07 in 10.0 mi Calm Calm - N/A   Mostly Cloudy
2:53 PM 46.0 °F 43.1 °F 23.0 °F 40% 30.05 in 10.0 mi North 5.8 mph - N/A   Scattered Clouds
3:53 PM 45.0 °F 43.5 °F 23.0 °F 42% 30.05 in 10.0 mi ESE 3.5 mph - N/A   Overcast
4:53 PM 44.1 °F - 24.1 °F 45% 30.05 in 10.0 mi Calm Calm - N/A   Mostly Cloudy
5:53 PM 43.0 °F 41.3 °F 23.0 °F 45% 30.05 in 10.0 mi West 3.5 mph - N/A   Mostly Cloudy
6:53 PM 39.0 °F - 25.0 °F 57% 30.08 in 10.0 mi Calm Calm - N/A   Mostly Cloudy
7:53 PM 39.9 °F 37.8 °F 26.1 °F 58% 30.09 in 10.0 mi NNW 3.5 mph - N/A   Overcast
8:53 PM 37.0 °F - 27.0 °F 67% 30.11 in 10.0 mi Calm Calm - N/A   Mostly Cloudy
9:53 PM 37.0 °F - 28.0 °F 70% 30.12 in 10.0 mi Calm Calm - N/A   Clear
10:53 PM 33.1 °F - 27.0 °F 78% 30.13 in 10.0 mi Calm Calm - N/A   Clear
11:53 PM 33.1 °F - 26.1 °F 75% 30.13 in 10.0 mi Calm Calm - N/A   Mostly Cloudy